Omak, WA

6:44 PM PST on February 13, 2016 (GMT -0800)
Omak

Weather History for KOMK - December, 2012

Change the Weather History Date:

Sunday, December 9, 2012

  Actual Average Record
Temperature  
Mean Temperature 28 °F 27 °F  
Max Temperature 32 °F 33 °F 49 °F (1938)
Min Temperature 23 °F 21 °F -2 °F (2009)
Degree Days  
Heating Degree Days 37 38  
Month to date heating degree days 257 332  
Since 1 July heating degree days 1584 1865  
Cooling Degree Days 0 0  
Month to date cooling degree days 0 0  
Year to date cooling degree days 629 665  
Moisture  
Dew Point 24 °F    
Average Humidity 85    
Maximum Humidity 92    
Minimum Humidity 78    
Precipitation  
Precipitation 0.03 in 0.06 in 0.77 in (1999)
Month to date precipitation 0.81 0.57  
Year to date precipitation 15.62 13.12  
Sea Level Pressure  
Sea Level Pressure 30.36 in    
Wind  
Wind Speed 6 mph (South)    
Max Wind Speed 17 mph    
Max Gust Speed 22 mph    
Visibility 8 miles    
Events Fog , Snow    
T = Trace of Precipitation, MM = Missing Value Source: NWS Daily Summary

Daily Weather History Graph

Daily Weather History Graph

Search for Another Location

Airport or City:

Trip Planner

Search our weather history database for the weather conditions in past years. The results will help you decide how hot, cold, wet, or windy it might be!

Date:

Astronomy

Dec. 09, 2012 Rise Set
Actual Time 7:38 AM PST 4:02 PM PST
Civil Twilight 7:01 AM PST 4:39 PM PST
Nautical Twilight 6:21 AM PST 5:19 PM PST
Astronomical Twilight 5:43 AM PST 5:57 PM PST
Moon 3:02 AM PST (12/9) 1:25 PM PST (12/9)
Length of Visible Light 9h 37m
Length of Day
8h 24m
Waning Crescent, 17% of the Moon is Illuminated
Dec 9
Waning Crescent
Dec 13
New
Dec 19
First Quarter
Dec 28
Full
Jan 4
Last Quarter

Hourly Weather History & Observations

Time (PST) Temp. Windchill Dew Point Humidity Pressure Visibility Wind Dir Wind Speed Gust Speed Precip Events Conditions
12:53 AM 25.0 °F 20.7 °F 21.0 °F 85% 30.40 in 10.0 mi North 3.5 mph - N/A   Clear
1:53 AM 26.1 °F 18.4 °F 21.0 °F 81% 30.40 in 10.0 mi North 6.9 mph - N/A   Clear
2:53 AM 25.0 °F 20.7 °F 21.0 °F 85% 30.42 in 10.0 mi North 3.5 mph - N/A   Clear
3:53 AM 24.1 °F 17.0 °F 19.9 °F 84% 30.42 in 10.0 mi NE 5.8 mph - N/A   Clear
4:53 AM 25.0 °F - 19.9 °F 81% 30.43 in 10.0 mi Calm Calm - N/A   Clear
5:53 AM 24.1 °F - 19.9 °F 84% 30.43 in 10.0 mi Calm Calm - N/A   Partly Cloudy
6:53 AM 25.0 °F - 21.0 °F 85% 30.44 in 10.0 mi Calm Calm - N/A   Overcast
7:53 AM 25.0 °F - 21.9 °F 88% 30.43 in 10.0 mi Calm Calm - N/A   Overcast
8:53 AM 26.1 °F - 21.9 °F 84% 30.43 in 10.0 mi Calm Calm - N/A   Overcast
9:41 AM 26.6 °F 20.0 °F 21.2 °F 80% 30.37 in 2.5 mi SSW 5.8 mph - 0.00 in Snow Light Snow
9:49 AM 28.4 °F 22.2 °F 23.0 °F 80% 30.37 in 1.0 mi South 5.8 mph - 0.00 in Snow Light Snow
9:50 AM 28.0 °F 21.7 °F 23.0 °F 81% 30.43 in 1.0 mi South 5.8 mph - 0.00 in Snow Light Snow
10:00 AM 28.4 °F 24.6 °F 24.8 °F 86% 30.39 in 0.8 mi SSW 3.5 mph - 0.00 in Snow Light Snow
10:09 AM 26.6 °F 21.2 °F 24.8 °F 93% 30.38 in 0.5 mi South 4.6 mph - 0.01 in Fog , Snow Snow
10:38 AM 28.4 °F 21.2 °F 26.6 °F 93% 30.36 in 1.0 mi South 6.9 mph - 0.02 in Snow Light Snow
10:50 AM 28.4 °F 22.2 °F 26.6 °F 93% 30.35 in 1.2 mi South 5.8 mph - 0.03 in Snow Light Snow
10:53 AM 28.0 °F 21.7 °F 26.1 °F 92% 30.40 in 1.2 mi South 5.8 mph - 0.03 in Snow Light Snow
11:00 AM 28.4 °F 21.2 °F 26.6 °F 93% 30.35 in 3.0 mi South 6.9 mph - 0.00 in Snow Light Snow
11:17 AM 28.4 °F 20.4 °F 26.6 °F 93% 30.34 in 10.0 mi South 8.1 mph - 0.00 in   Overcast
11:53 AM 30.0 °F 21.7 °F 26.1 °F 85% 30.38 in 9.0 mi South 9.2 mph - 0.00 in   Overcast
12:12 PM 30.2 °F 21.3 °F 26.6 °F 86% 30.32 in 10.0 mi South 10.4 mph - N/A   Overcast
12:53 PM 30.9 °F 20.2 °F 25.0 °F 79% 30.34 in 10.0 mi South 15.0 mph 21.9 mph N/A   Overcast
1:53 PM 30.9 °F 20.7 °F 25.0 °F 79% 30.33 in 10.0 mi South 13.8 mph 18.4 mph N/A   Overcast
2:53 PM 30.9 °F 21.7 °F 25.0 °F 79% 30.31 in 10.0 mi South 11.5 mph - N/A   Overcast
3:53 PM 30.9 °F 20.7 °F 25.0 °F 79% 30.29 in 10.0 mi SSE 13.8 mph - N/A   Overcast
4:53 PM 30.9 °F 22.2 °F 26.1 °F 82% 30.29 in 10.0 mi SSE 10.4 mph - N/A   Overcast
5:53 PM 32.0 °F 25.6 °F 26.1 °F 79% 30.30 in 10.0 mi SSE 6.9 mph - N/A   Overcast
6:53 PM 30.9 °F 24.3 °F 27.0 °F 85% 30.27 in 10.0 mi SSW 6.9 mph - N/A   Overcast
7:53 PM 30.9 °F 27.5 °F 27.0 °F 85% 30.26 in 10.0 mi South 3.5 mph - N/A   Overcast
8:53 PM 30.9 °F 26.2 °F 27.0 °F 85% 30.27 in 10.0 mi NNE 4.6 mph - N/A   Overcast
9:53 PM 30.9 °F - 27.0 °F 85% 30.27 in 10.0 mi Calm Calm - N/A   Overcast
10:53 PM 30.9 °F 26.2 °F 27.0 °F 85% 30.28 in 10.0 mi North 4.6 mph - N/A   Overcast
11:53 PM 30.9 °F 26.2 °F 27.0 °F 85% 30.28 in 10.0 mi NNW 4.6 mph - N/A   Overcast